EDT,Max TemperatureF,Mean TemperatureF,Min TemperatureF,Max Dew PointF,MeanDew PointF,Min DewpointF,Max Humidity, Mean Humidity, Min Humidity, Max Sea Level PressureIn, Mean Sea Level PressureIn, Min Sea Level PressureIn, Max VisibilityMiles, Mean VisibilityMiles, Min VisibilityMiles, Max Wind SpeedMPH, Mean Wind SpeedMPH, Max Gust SpeedMPH,PrecipitationIn, CloudCover, Events, WindDirDegrees
2013-3-1,51,46,41,50,41,28,100,84,44,29.98,29.96,29.91,10,10,10,12,7,20,0.00,1,,285
2013-3-2,50,44,39,45,39,28,100,88,43,29.99,29.96,29.89,10,10,10,14,8,25,0.00,2,,263
2013-3-3,44,38,33,41,35,25,100,88,4,30.08,30.00,29.95,10,10,10,12,8,21,0.00,2,,264
2013-3-4,51,41,32,52,37,19,100,86,30,30.21,30.14,30.08,10,10,10,9,7,17,0.00,0,,235
2013-3-5,64,53,42,64,51,39,100,89,48,30.16,30.00,29.79,10,10,3,20,5,36,0.14,2,Rain,200
2013-3-6,59,50,41,59,42,23,100,85,35,30.12,29.95,29.80,10,10,10,22,13,34,0.00,0,,276
2013-3-7,53,46,39,43,39,30,100,87,44,30.26,30.19,30.13,10,10,10,14,8,23,0.00,0,,330
2013-3-8,60,48,37,50,39,28,100,83,29,30.29,30.24,30.10,10,9,5,14,5,20,0.00,0,,2
2013-3-9,57,48,39,46,42,34,100,88,51,30.35,30.28,30.25,10,10,10,13,5,,0.00,0,,33
2013-3-10,59,49,39,55,48,39,100,91,63,30.30,30.24,30.20,10,10,10,12,3,21,0.00,0,,43
2013-3-11,71,62,53,64,56,54,100,92,60,30.22,30.08,29.93,10,9,5,9,6,16,0.00,2,,96
2013-3-12,68,62,57,63,59,46,100,93,49,30.00,29.91,29.86,10,7,2,12,7,23,0.01,3,Rain,210
2013-3-13,64,56,48,57,17,-72,100,55,4,30.17,30.08,30.01,10,10,10,12,7,23,0.00,0,,308
2013-3-14,53,47,41,48,8,-74,100,52,4,30.33,30.23,30.16,10,10,10,14,8,22,0.00,0,,332
2013-3-15,62,50,39,57,43,27,100,83,30,30.27,30.19,30.09,10,10,10,10,5,18,0.00,0,,221
2013-3-16,78,66,53,63,52,37,100,79,24,30.09,30.03,29.93,10,10,10,16,10,29,0.00,0,,219
2013-3-17,71,64,57,64,60,52,100,90,56,30.09,30.04,30.00,10,10,9,14,9,21,0.00,1,,209
2013-3-18,66,62,57,64,60,55,100,94,73,30.09,30.00,29.89,10,8,2,14,5,28,0.49,5,Rain-Thunderstorm,190
2013-3-19,75,65,55,61,55,34,100,89,22,30.03,29.94,29.85,10,10,5,17,6,23,0.01,1,Rain,251
2013-3-20,59,50,42,59,48,23,100,84,27,30.10,29.99,29.88,10,10,9,13,7,,0.00,0,,16
2013-3-21,57,49,41,52,21,-74,100,62,4,29.97,29.89,29.84,10,10,10,17,7,25,0.00,0,,291
2013-3-22,55,47,39,48,41,23,100,87,44,30.11,30.04,29.97,10,9,5,12,5,17,0.00,1,,20
2013-3-23,59,52,44,55,49,45,100,93,67,30.07,29.98,29.86,10,8,1,20,4,28,0.00,6,Rain-Thunderstorm,43
2013-3-24,73,63,53,66,57,54,100,95,57,29.89,29.66,29.50,10,6,2,15,8,29,0.30,7,Rain-Thunderstorm,38
2013-3-25,57,52,44,55,19,-72,100,62,4,30.02,29.79,29.62,10,10,10,23,7,43,0.00,2,,282
2013-3-26,50,44,37,27,-41,-76,65,18,4,30.24,30.10,30.02,10,10,10,20,10,30,0.00,1,,278
2013-3-27,53,45,37,45,-13,-78,100,42,4,30.30,30.25,30.22,10,10,10,13,7,21,0.00,0,,286
2013-3-28,57,47,37,46,38,27,100,80,35,30.33,30.27,30.22,10,10,10,12,4,21,0.00,0,,301
2013-3-29,59,50,41,55,44,36,100,87,42,30.37,30.29,30.25,10,9,6,10,2,,0.00,0,,92
2013-3-30,69,61,53,61,53,39,100,85,35,30.26,30.19,30.11,10,10,9,17,6,20,0.00,1,,188
2013-3-31,69,63,57,64,59,48,100,90,56,30.12,30.04,29.94,10,10,6,13,8,23,0.00,1,Rain,193